Regional Weather Roundup
Issued by NWS

Home | Current Version | Previous Version | Graphics & Text | Print | Product List | Glossary On
Versions: 1 2 3 4 5 6 7 8 9 10 11 12 13 14 15 16 17 18 19 20 21 22 23 24 25 26
000
ASUS45 KSLC 262110
RWRUT

UTAH REGIONAL WEATHER ROUNDUP
NATIONAL WEATHER SERVICE SALT LAKE CITY UT
300 PM MDT THU MAY 26 2016

UTZ001>011-023>025-262200-

NORTHERN UTAH

CITY           SKY/WX    TMP DP  RH WIND       PRES   REMARKS
BRIGHAM CITY     N/A     67  33  28 NE13      29.96F
DUGWAY         MOSUNNY   70  37  29 NW10      29.98F
HILL AFB       MOSUNNY   65  38  36 W12G18    29.97F
LOGAN          MOSUNNY   66  39  37 CALM      29.96F
OGDEN          MOSUNNY   68  39  34 NW13      29.95F
PROVO AIRPORT  PTSUNNY   68  37  32 NW14      29.95F
SALT LAKE CITY MOSUNNY   69  33  26 NW13      29.96S
VERNAL         CLOUDY    63  34  33 N10       29.92F
WENDOVER       MOSUNNY   70  34  26 W3        29.99F
HEBER CITY     RAIN      52  37  58 W13G25    29.97R
WEST JORDAN    SUNNY     66  39  37 NW14G21   29.98S

$$

UTZ012>022-026-027-262200-

SOUTHERN/CENTRAL UTAH

CITY           SKY/WX    TMP DP  RH WIND       PRES   REMARKS
BLANDING       MOSUNNY   64  20  18 S6        29.97F
BRYCE CANYON   CLOUDY    50  32  50 W5        30.07F
CEDAR CITY     CLOUDY    55  38  52 NE12      30.01R
DELTA          PTSUNNY   68  28  22 N7G18     29.96F
HANKSVILLE     CLOUDY    66  32  28 NW20G35   29.91R
MILFORD        MOSUNNY   68  32  26 N14G22    29.96F
MOAB/CYNLANDS  PTSUNNY   72  25  17 N14       29.82F
PRICE          CLOUDY    56  34  43 W9        29.99R
ST GEORGE      MOCLDY    75  30  19 W13G23    29.90F
KANAB          CLOUDY    63  36  36 N16       30.03F

$$

REGIONAL REPORTS     COLORADO/ARIZONA

CITY           SKY/WX    TMP DP  RH WIND       PRES   REMARKS
CRAIG, CO      CLOUDY    63  34  33 SW8       29.92F
GRAND JUNCTION CLOUDY    70  19  14 S6        29.83F
RIFLE          CLOUDY    70  27  20 N10       29.85S
MONTROSE       CLOUDY    57  34  41 SE20      29.96F
CORTEZ         CLOUDY    62  21  20 NW12G23   29.92R
PAGE, AZ       PTSUNNY   73  30  20 W16G29    29.92S
GRAND CANYON   PTSUNNY   57  28  33 W10G20    30.06R
KINGMAN        PTSUNNY   76  28  17 SW12G20   29.96F
FLAGSTAFF      CLOUDY    57  23  26 SW12G22   30.05S

$$

REGIONAL REPORTS    NEVADA/IDAHO/WYOMING

CITY           SKY/WX    TMP DP  RH WIND       PRES   REMARKS
LAS VEGAS, NV  MOSUNNY   81  31  16 NW10G21   29.87F
ELY            PTSUNNY   57  35  43 N15G23    30.07S
ELKO           CLOUDY    56  42  59 SW6       30.07F
POCATELLO, ID  MOSUNNY   67  32  27 VRB7      29.99F
BURLEY         SUNNY     68  40  35 VRB6      29.98F
EVANSTON, WY   CLOUDY    57  29  34 NW12      30.03S
ROCK SPRINGS   MOSUNNY   60  25  26 NW13G18   29.98F
KEMMERER         N/A     57  34  41 NW16G23   30.02F

$$




USA.gov is the U.S. government's official web portal to all federal, state and local government web resources and services.